Hourly Data Report for February 11, 2006

TORONTO CITY
ONTARIO

43°40'00.000" N
79°24'00.000" W
112.50 m
6158355
71508
XTO

Download Data

Hourly Data (February 2006)
Hourly Data Report for February 11, 2006
TIME
LST
Temp Definition
°C
Dew Point Definition
°C
Rel Hum Definition
%
Precip. Amount Definition
mm

Wind Dir Definition
10's deg

Wind Spd Definition
km/h
Visibility Definition
km
Stn Press Definition
kPa
Hmdx Definition


Wind Chill Definition


Weather Definition


00:00 -3.4 -5.0 89   LegendMM LegendMM   100.50     LegendNANA
01:00 -4.1 -5.7 89   LegendMM LegendMM   100.52     LegendNANA
02:00 -4.0 -5.7 88   LegendMM LegendMM   100.53     LegendNANA
03:00 -4.1 -5.9 87   LegendMM LegendMM   100.50     LegendNANA
04:00 -4.2 -5.9 88   LegendMM LegendMM   100.49     LegendNANA
05:00 -5.2 -6.8 88   LegendMM LegendMM   100.54     LegendNANA
06:00 -5.9 -7.3 90   LegendMM LegendMM   100.56     LegendNANA
07:00 -6.6 -8.2 88   LegendMM LegendMM   100.62     LegendNANA
08:00 -7.0 -9.0 86   LegendMM LegendMM   100.68     LegendNANA
09:00 -7.3 -9.7 83   LegendMM LegendMM   100.69     LegendNANA
10:00 -6.4 -9.6 78   LegendMM LegendMM   100.62     LegendNANA
11:00 -5.5 -9.1 76   LegendMM LegendMM   100.61     LegendNANA
12:00 -4.3 -8.7 71   LegendMM LegendMM   100.58     LegendNANA
13:00 -2.3 -8.3 63   LegendMM LegendMM   100.49     LegendNANA
14:00 -3.0 -8.3 67   LegendMM LegendMM   100.42     LegendNANA
15:00 -3.1 -7.9 69   LegendMM LegendMM   100.36     LegendNANA
16:00 -3.1 -7.1 74   LegendMM LegendMM   100.35     LegendNANA
17:00 -3.2 -7.6 72   LegendMM LegendMM   100.34     LegendNANA
18:00 -3.2 -8.0 69   LegendMM LegendMM   100.30     LegendNANA
19:00 -3.3 -7.7 72   LegendMM LegendMM   100.30     LegendNANA
20:00 -4.1 -8.4 72   LegendMM LegendMM   100.27     LegendNANA
21:00 -4.6 -7.3 81   LegendMM LegendMM   100.22     LegendNANA
22:00 -4.8 -8.9 73   LegendMM LegendMM   100.19     LegendNANA
23:00 -5.3 -9.5 72   LegendMM LegendMM   100.13     LegendNANA

Notes on Data Quality.

Legend

  • E = Estimated
  • M = Missing
  • NA = Not Available*
  • [empty] = Indicates an unobserved value
Date modified: